Starlink 33619

operational
NORAD ID: 63324 Int'l Des: 2025-057 Owner: SPXS Country: US Constellation: starlink
LEOCIRCULAR

Über Starlink 33619

Beschreibung wird geladen...

Live-Position

3D-Globus wird geladen...

Nächste Überflüge

Höhenverlauf

Altitude vs Time

uPlot chart will show altitude changes over time

Zweizeiliger Elementsatz

1 63324U 25057T 25259.44186173 .00030096 00000-0 10975-2 0 9996
2 63324 42.9987 294.4568 0001735 263.5710 96.4944 15.27617691 29133
Epoch: 16. Sept. 2025 • Age: 11 hours

Aktueller Status

Höhe 495.0 km
Geschwindigkeit 7.62 km/s
Subsatellitenpunkt -43.15°S, 112.71°W
Startdatum 18. März 2025
Alter 0.4 years
Typ internet

Technische Details

Klassifizierung Payload
Masse 575.00 kg
Trockenmasse 530.00 kg
Gesamtmasse 575.00 kg
Länge 0.30 m
Durchmesser 4.10 m
Spannweite 29.00 m
Form Box + pan
Hersteller SPXS
Bus-Typ Starlink V2MO
Phasenstatus In Orbit
Besitzer/Staat SPXS/US

Große Konstellationen

Loading constellations...